EWG7VN EDDH-LOWW

Flight info

Callsign EWG7VN
Flight time 1h 10m
Altitude 39000
Route RAMAR6G RAMAR Z998 RATMO DCT HDO DCT EVIKU DCT BITSI DCT MIKOV MIKOV8W
Aircraft A21N/M-SDE2E3FGHIRWXY/LB1

Departure

Time 2026-05-04 18:38
Airport Hamburg Helmut Schmidt Airport (EDDH)

Arrival

Time 2026-05-04 19:49
Airport Vienna International Airport (LOWW)
Time Latitude Longitude Altitude Speed Heading
2026-05-04 18:24 53.62734 10.00293 54 ft 0 kts 63°
2026-05-04 18:32 53.62733 10.00291 54 ft 2 kts 63°
2026-05-04 18:33 53.62726 10.00266 49 ft 2 kts 64°
2026-05-04 18:33 53.62719 10.00242 54 ft 2 kts 65°
2026-05-04 18:33 53.62712 10.00216 50 ft 2 kts 72°
2026-05-04 18:33 53.62712 10.00190 52 ft 2 kts 130°
2026-05-04 18:34 53.62718 10.00180 52 ft 0 kts 150°
2026-05-04 18:34 53.62715 10.00184 51 ft 2 kts 150°
2026-05-04 18:34 53.62709 10.00190 48 ft 0 kts 150°
2026-05-04 18:35 53.62708 10.00190 48 ft 1 kts 153°
2026-05-04 18:35 53.62655 10.00234 50 ft 13 kts 153°
2026-05-04 18:35 53.62596 10.00251 50 ft 6 kts 210°
2026-05-04 18:35 53.62566 10.00206 51 ft 1 kts 238°
2026-05-04 18:36 53.62559 10.00166 52 ft 5 kts 251°
2026-05-04 18:36 53.62542 10.00066 50 ft 13 kts 278°
2026-05-04 18:36 53.62582 9.99993 50 ft 0 kts 331°
2026-05-04 18:36 53.62585 9.99989 50 ft 0 kts 331°
2026-05-04 18:37 53.62664 9.99915 51 ft 42 kts 331°
2026-05-04 18:37 53.63169 9.99483 53 ft 122 kts 333°
2026-05-04 18:38 53.64118 9.98672 250 ft 168 kts 332°
2026-05-04 18:38 53.65206 9.97776 845 ft 179 kts 333°
2026-05-04 18:38 53.66354 9.96862 1550 ft 184 kts 332°
2026-05-04 18:38 53.67554 9.95908 2065 ft 205 kts 334°
2026-05-04 18:39 53.69029 9.95081 2503 ft 241 kts 353°
2026-05-04 18:39 53.70765 9.95077 3383 ft 255 kts 360°
2026-05-04 18:39 53.72567 9.95262 4258 ft 264 kts
2026-05-04 18:39 53.74279 9.96411 4830 ft 277 kts 44°
2026-05-04 18:40 53.75149 9.99319 5733 ft 285 kts 74°
2026-05-04 18:40 53.75748 10.02534 6833 ft 288 kts 71°
2026-05-04 18:40 53.76445 10.05742 7828 ft 293 kts 68°
2026-05-04 18:40 53.77229 10.08946 8816 ft 297 kts 66°
2026-05-04 18:41 53.78077 10.12161 9565 ft 303 kts 65°
2026-05-04 18:41 53.78969 10.15405 9910 ft 305 kts 64°
2026-05-04 18:41 53.79882 10.18656 9966 ft 307 kts 64°
2026-05-04 18:41 53.80806 10.21926 10159 ft 320 kts 64°
2026-05-04 18:42 53.81726 10.25525 10516 ft 345 kts 75°
2026-05-04 18:42 53.81834 10.29626 11061 ft 357 kts 102°
2026-05-04 18:42 53.80934 10.33520 11805 ft 358 kts 124°
2026-05-04 18:42 53.80552 10.34511 12039 ft 359 kts 128°
2026-05-04 18:43 53.78971 10.37828 12831 ft 362 kts 135°
2026-05-04 18:43 53.77212 10.40933 13674 ft 365 kts 137°
2026-05-04 18:43 53.75421 10.43963 14392 ft 370 kts 137°
2026-05-04 18:43 53.73604 10.47087 15107 ft 375 kts 137°
2026-05-04 18:44 53.73088 10.47995 15305 ft 377 kts 136°
2026-05-04 18:44 53.71889 10.50141 15787 ft 380 kts 136°
2026-05-04 18:44 53.69490 10.54584 16731 ft 386 kts 135°
2026-05-04 18:44 53.67692 10.58005 17434 ft 391 kts 134°
2026-05-04 18:45 53.65889 10.61473 18109 ft 396 kts 134°
2026-05-04 18:45 53.64088 10.64950 18694 ft 399 kts 134°
2026-05-04 18:45 53.62256 10.68482 19283 ft 402 kts 134°
2026-05-04 18:45 53.60742 10.71392 19762 ft 404 kts 135°
2026-05-04 18:46 53.58879 10.74964 20356 ft 406 kts 135°
2026-05-04 18:46 53.57011 10.78538 20923 ft 409 kts 135°
2026-05-04 18:46 53.55121 10.82144 21490 ft 412 kts 135°
2026-05-04 18:46 53.54582 10.83172 21649 ft 412 kts 135°
2026-05-04 18:47 53.52677 10.86800 22204 ft 415 kts 135°
2026-05-04 18:47 53.50766 10.90433 22753 ft 417 kts 136°
2026-05-04 18:47 53.50219 10.91471 22910 ft 418 kts 136°
2026-05-04 18:47 53.48285 10.95143 23370 ft 422 kts 136°
2026-05-04 18:48 53.46352 10.98806 23737 ft 427 kts 136°
2026-05-04 18:48 53.44349 11.02592 24122 ft 430 kts 136°
2026-05-04 18:48 53.42456 11.06160 24498 ft 432 kts 137°
2026-05-04 18:48 53.40511 11.09822 24865 ft 434 kts 137°
2026-05-04 18:49 53.38495 11.13614 25227 ft 437 kts 137°
2026-05-04 18:49 53.36468 11.17423 25582 ft 439 kts 137°
2026-05-04 18:49 53.35659 11.18942 25730 ft 440 kts 137°
2026-05-04 18:49 53.33863 11.22313 26017 ft 442 kts 137°
2026-05-04 18:50 53.31816 11.26147 26356 ft 444 kts 137°
2026-05-04 18:50 53.29749 11.30015 26674 ft 446 kts 137°
2026-05-04 18:50 53.27678 11.33883 26972 ft 448 kts 137°
2026-05-04 18:50 53.26857 11.35416 27093 ft 449 kts 137°
2026-05-04 18:51 53.25066 11.39010 27339 ft 454 kts 134°
2026-05-04 18:51 53.22928 11.42845 27622 ft 448 kts 145°
2026-05-04 18:51 53.20448 11.45923 27899 ft 443 kts 152°
2026-05-04 18:51 53.18757 11.47824 28076 ft 444 kts 152°
2026-05-04 18:52 53.17194 11.49573 28240 ft 445 kts 152°
2026-05-04 18:52 53.14609 11.52556 28533 ft 447 kts 150°
2026-05-04 18:52 53.12089 11.55630 28785 ft 450 kts 149°
2026-05-04 18:52 53.09601 11.58817 29037 ft 453 kts 147°
2026-05-04 18:53 53.07130 11.62091 29276 ft 455 kts 147°
2026-05-04 18:53 53.04699 11.65370 29503 ft 457 kts 147°
2026-05-04 18:53 53.02227 11.68728 29735 ft 458 kts 146°
2026-05-04 18:53 52.99790 11.72039 29933 ft 460 kts 146°
2026-05-04 18:54 52.97310 11.75400 30095 ft 461 kts 146°
2026-05-04 18:54 52.94818 11.78765 30248 ft 463 kts 146°
2026-05-04 18:54 52.92320 11.82128 30474 ft 462 kts 146°
2026-05-04 18:54 52.89823 11.85487 30713 ft 462 kts 146°
2026-05-04 18:55 52.87332 11.88839 30936 ft 461 kts 146°
2026-05-04 18:55 52.82400 11.95467 31347 ft 461 kts 146°
2026-05-04 18:55 52.79913 11.98804 31544 ft 461 kts 147°
2026-05-04 18:56 52.77423 12.02139 31747 ft 461 kts 147°
2026-05-04 18:56 52.74932 12.05469 31948 ft 460 kts 147°
2026-05-04 18:56 52.72447 12.08784 32139 ft 460 kts 147°
2026-05-04 18:56 52.69949 12.12112 32334 ft 460 kts 147°
2026-05-04 18:57 52.67456 12.15428 32452 ft 461 kts 147°
2026-05-04 18:57 52.66578 12.16595 32485 ft 462 kts 147°
2026-05-04 18:57 52.64243 12.19690 32615 ft 462 kts 147°
2026-05-04 18:57 52.61733 12.23009 32789 ft 462 kts 147°
2026-05-04 18:58 52.59233 12.26311 33024 ft 460 kts 147°
2026-05-04 18:58 52.58372 12.27447 33103 ft 460 kts 147°
2026-05-04 18:58 52.56026 12.30544 33281 ft 459 kts 147°
2026-05-04 18:58 52.53537 12.33827 33443 ft 459 kts 147°
2026-05-04 18:59 52.51047 12.37106 33615 ft 459 kts 147°
2026-05-04 18:59 52.48552 12.40385 33789 ft 459 kts 147°
2026-05-04 18:59 52.46052 12.43664 33954 ft 459 kts 147°
2026-05-04 18:59 52.45353 12.44581 33998 ft 459 kts 147°
2026-05-04 19:00 52.42892 12.47802 34150 ft 459 kts 147°
2026-05-04 19:00 52.40398 12.51061 34296 ft 458 kts 147°
2026-05-04 19:00 52.37909 12.54309 34405 ft 459 kts 147°
2026-05-04 19:00 52.35404 12.57571 34516 ft 459 kts 147°
2026-05-04 19:01 52.32193 12.61742 34712 ft 458 kts 147°
2026-05-04 19:01 52.29709 12.64963 34977 ft 455 kts 147°
2026-05-04 19:01 52.27233 12.68174 35149 ft 454 kts 147°
2026-05-04 19:02 52.24759 12.71382 35255 ft 454 kts 147°
2026-05-04 19:02 52.22279 12.74589 35378 ft 455 kts 147°
2026-05-04 19:02 52.19093 12.78698 35526 ft 455 kts 147°
2026-05-04 19:03 52.16614 12.81887 35652 ft 455 kts 147°
2026-05-04 19:03 52.14168 12.85029 35769 ft 455 kts 147°
2026-05-04 19:03 52.09192 12.91403 35984 ft 454 kts 147°
2026-05-04 19:04 52.06029 12.95444 36132 ft 454 kts 147°
2026-05-04 19:04 52.01074 13.01762 36333 ft 454 kts 146°
2026-05-04 19:05 51.98583 13.04930 36447 ft 454 kts 146°
2026-05-04 19:05 51.95389 13.08987 36573 ft 454 kts 146°
2026-05-04 19:05 51.92906 13.12136 36690 ft 453 kts 146°
2026-05-04 19:06 51.90419 13.15284 36795 ft 453 kts 146°
2026-05-04 19:06 51.87936 13.18424 36895 ft 453 kts 146°
2026-05-04 19:06 51.82967 13.24693 37072 ft 453 kts 146°
2026-05-04 19:07 51.80479 13.27823 37180 ft 453 kts 146°
2026-05-04 19:07 51.78008 13.30928 37277 ft 452 kts 146°
2026-05-04 19:07 51.73049 13.37145 37496 ft 451 kts 146°
2026-05-04 19:08 51.70570 13.40248 37618 ft 450 kts 146°
2026-05-04 19:08 51.68101 13.43336 37691 ft 450 kts 146°
2026-05-04 19:08 51.63154 13.49506 37850 ft 450 kts 146°
2026-05-04 19:09 51.60811 13.52208 38140 ft 444 kts 149°
2026-05-04 19:09 51.58300 13.55110 38207 ft 444 kts 150°
2026-05-04 19:09 51.53125 13.60363 38155 ft 446 kts 152°
2026-05-04 19:10 51.47878 13.65845 38074 ft 452 kts 150°
2026-05-04 19:10 51.45293 13.68727 38215 ft 451 kts 149°
2026-05-04 19:10 51.42747 13.71652 38334 ft 450 kts 148°
2026-05-04 19:11 51.37873 13.77372 38458 ft 451 kts 148°
2026-05-04 19:11 51.32767 13.83382 38587 ft 450 kts 148°
2026-05-04 19:12 51.25180 13.92239 38744 ft 450 kts 148°
2026-05-04 19:13 51.20994 13.97098 38815 ft 450 kts 148°
2026-05-04 19:13 51.16791 14.01974 38889 ft 450 kts 147°
2026-05-04 19:14 51.12780 14.06932 38956 ft 451 kts 146°
2026-05-04 19:14 51.07762 14.12954 38966 ft 451 kts 147°
2026-05-04 19:15 51.03561 14.17847 38966 ft 450 kts 148°
2026-05-04 19:15 50.98621 14.23532 38966 ft 450 kts 148°
2026-05-04 19:16 50.94369 14.28395 38957 ft 450 kts 148°
2026-05-04 19:16 50.89277 14.34198 38959 ft 451 kts 148°
2026-05-04 19:17 50.84190 14.39975 38967 ft 450 kts 148°
2026-05-04 19:17 50.80920 14.43682 38957 ft 450 kts 148°
2026-05-04 19:18 50.75881 14.49380 38960 ft 450 kts 148°
2026-05-04 19:18 50.70786 14.55126 38944 ft 450 kts 148°
2026-05-04 19:19 50.65693 14.60853 38933 ft 450 kts 148°
2026-05-04 19:19 50.60596 14.66571 38954 ft 450 kts 148°
2026-05-04 19:20 50.55492 14.72280 38945 ft 450 kts 148°
2026-05-04 19:20 50.50385 14.77976 38946 ft 450 kts 148°
2026-05-04 19:21 50.45302 14.83631 38939 ft 450 kts 148°
2026-05-04 19:21 50.40157 14.89340 38940 ft 450 kts 148°
2026-05-04 19:22 50.35074 14.94964 38931 ft 450 kts 148°
2026-05-04 19:22 50.29914 15.00658 38938 ft 452 kts 148°
2026-05-04 19:23 50.24795 15.06286 38940 ft 454 kts 148°
2026-05-04 19:23 50.19577 15.12006 38939 ft 456 kts 148°
2026-05-04 19:24 50.14411 15.17652 38934 ft 457 kts 148°
2026-05-04 19:24 50.09145 15.23391 38814 ft 462 kts 148°
2026-05-04 19:24 50.06546 15.26211 38439 ft 462 kts 148°
2026-05-04 19:25 50.03868 15.29111 37958 ft 462 kts 148°
2026-05-04 19:25 50.01229 15.31962 37456 ft 463 kts 148°
2026-05-04 19:25 49.98578 15.34820 36968 ft 463 kts 148°
2026-05-04 19:25 49.95935 15.37662 36489 ft 463 kts 148°
2026-05-04 19:26 49.93306 15.40485 36027 ft 463 kts 148°
2026-05-04 19:26 49.90644 15.43339 35571 ft 463 kts 148°
2026-05-04 19:26 49.87992 15.46178 35120 ft 464 kts 148°
2026-05-04 19:26 49.85368 15.48983 34686 ft 464 kts 148°
2026-05-04 19:27 49.82710 15.51821 34247 ft 464 kts 148°
2026-05-04 19:27 49.80055 15.54653 33789 ft 465 kts 148°
2026-05-04 19:27 49.77386 15.57496 33289 ft 466 kts 148°
2026-05-04 19:27 49.74716 15.60336 32801 ft 468 kts 148°
2026-05-04 19:28 49.72017 15.63202 32335 ft 469 kts 148°
2026-05-04 19:28 49.69310 15.66069 31866 ft 471 kts 148°
2026-05-04 19:28 49.66640 15.68893 31420 ft 472 kts 148°
2026-05-04 19:28 49.63928 15.71757 30973 ft 474 kts 148°
2026-05-04 19:29 49.61200 15.74635 30530 ft 475 kts 148°
2026-05-04 19:29 49.58470 15.77510 30088 ft 476 kts 148°
2026-05-04 19:29 49.55742 15.80382 29591 ft 475 kts 148°
2026-05-04 19:29 49.53017 15.83250 29075 ft 472 kts 148°
2026-05-04 19:30 49.50349 15.86059 28582 ft 468 kts 148°
2026-05-04 19:30 49.47679 15.88875 28087 ft 465 kts 147°
2026-05-04 19:30 49.45018 15.91682 27615 ft 462 kts 147°
2026-05-04 19:30 49.42375 15.94465 27158 ft 459 kts 147°
2026-05-04 19:31 49.39833 15.97140 26702 ft 455 kts 147°
2026-05-04 19:31 49.37311 15.99791 26260 ft 452 kts 147°
2026-05-04 19:31 49.34749 16.02481 25820 ft 448 kts 147°
2026-05-04 19:31 49.32996 16.04320 25518 ft 446 kts 148°
2026-05-04 19:32 49.31438 16.05952 25258 ft 453 kts 148°
2026-05-04 19:32 49.28766 16.08717 24817 ft 471 kts 148°
2026-05-04 19:32 49.25999 16.11535 24399 ft 483 kts 148°
2026-05-04 19:32 49.24137 16.13421 24119 ft 486 kts 148°
2026-05-04 19:33 49.22387 16.15194 23865 ft 486 kts 148°
2026-05-04 19:33 49.19599 16.18031 23447 ft 483 kts 148°
2026-05-04 19:33 49.17750 16.19923 23123 ft 481 kts 148°
2026-05-04 19:33 49.16030 16.21688 22818 ft 478 kts 147°
2026-05-04 19:34 49.13277 16.24526 22338 ft 475 kts 147°
2026-05-04 19:34 49.10556 16.27337 21857 ft 471 kts 147°
2026-05-04 19:34 49.07855 16.30131 21388 ft 467 kts 147°
2026-05-04 19:34 49.05175 16.32902 20927 ft 464 kts 147°
2026-05-04 19:35 49.04269 16.33838 20772 ft 463 kts 147°
2026-05-04 19:35 49.01759 16.36431 20339 ft 460 kts 147°
2026-05-04 19:35 48.99119 16.39156 19889 ft 457 kts 147°
2026-05-04 19:35 48.96496 16.41859 19455 ft 453 kts 147°
2026-05-04 19:36 48.93899 16.44532 19025 ft 450 kts 147°
2026-05-04 19:36 48.91310 16.47193 18593 ft 446 kts 148°
2026-05-04 19:36 48.88748 16.49823 18165 ft 442 kts 148°
2026-05-04 19:36 48.86212 16.52423 17679 ft 439 kts 148°
2026-05-04 19:37 48.83688 16.55009 17207 ft 436 kts 148°
2026-05-04 19:37 48.81178 16.57579 16967 ft 434 kts 148°
2026-05-04 19:37 48.78687 16.60137 16823 ft 432 kts 147°
2026-05-04 19:37 48.78011 16.60862 16799 ft 432 kts 146°
2026-05-04 19:38 48.75476 16.63284 16685 ft 428 kts 159°
2026-05-04 19:38 48.72582 16.63899 16421 ft 420 kts 188°
2026-05-04 19:38 48.71611 16.63688 16464 ft 417 kts 190°
2026-05-04 19:38 48.68936 16.62904 16355 ft 413 kts 195°
2026-05-04 19:39 48.66174 16.61713 15896 ft 415 kts 197°
2026-05-04 19:39 48.63418 16.60436 15389 ft 413 kts 199°
2026-05-04 19:39 48.60704 16.59052 14909 ft 410 kts 200°
2026-05-04 19:39 48.58020 16.57597 14415 ft 407 kts 201°
2026-05-04 19:40 48.55381 16.56121 13944 ft 404 kts 201°
2026-05-04 19:40 48.52752 16.54624 13433 ft 401 kts 201°
2026-05-04 19:40 48.50217 16.53171 12878 ft 373 kts 201°
2026-05-04 19:40 48.47875 16.51884 11899 ft 345 kts 199°
2026-05-04 19:41 48.45640 16.50793 10525 ft 334 kts 199°
2026-05-04 19:41 48.43468 16.49728 8741 ft 332 kts 197°
2026-05-04 19:41 48.41255 16.48743 7026 ft 335 kts 194°
2026-05-04 19:41 48.39030 16.47933 5507 ft 327 kts 192°
2026-05-04 19:42 48.36922 16.47462 4968 ft 284 kts 178°
2026-05-04 19:42 48.35185 16.48184 4561 ft 232 kts 162°
2026-05-04 19:42 48.33813 16.48942 4173 ft 195 kts 161°
2026-05-04 19:42 48.32581 16.49486 4156 ft 182 kts 171°
2026-05-04 19:43 48.31293 16.49767 4403 ft 192 kts 174°
2026-05-04 19:43 48.30001 16.50072 4631 ft 183 kts 172°
2026-05-04 19:43 48.28830 16.50557 4858 ft 171 kts 165°
2026-05-04 19:43 48.27682 16.51047 4718 ft 174 kts 168°
2026-05-04 19:44 48.27285 16.51213 4610 ft 176 kts 168°
2026-05-04 19:44 48.26219 16.51728 4279 ft 164 kts 163°
2026-05-04 19:44 48.25188 16.52287 3820 ft 157 kts 169°
2026-05-04 19:44 48.24061 16.52562 3042 ft 171 kts 172°
2026-05-04 19:45 48.22949 16.53061 2704 ft 158 kts 159°
2026-05-04 19:45 48.21963 16.53539 2504 ft 143 kts 175°
2026-05-04 19:45 48.20965 16.53873 2125 ft 157 kts 160°
2026-05-04 19:45 48.19927 16.54428 1942 ft 158 kts 165°
2026-05-04 19:46 48.18894 16.54926 1964 ft 141 kts 166°
2026-05-04 19:46 48.18057 16.55251 2132 ft 123 kts 168°
2026-05-04 19:46 48.17188 16.55607 1690 ft 134 kts 167°
2026-05-04 19:46 48.16571 16.55899 1397 ft 139 kts 165°
2026-05-04 19:47 48.16011 16.56134 1219 ft 136 kts 167°
2026-05-04 19:47 48.15088 16.56502 1139 ft 138 kts 166°
2026-05-04 19:47 48.14191 16.56941 1074 ft 141 kts 163°
2026-05-04 19:47 48.13228 16.57295 902 ft 142 kts 164°
2026-05-04 19:48 48.12309 16.57678 696 ft 132 kts 162°
2026-05-04 19:48 48.11472 16.58037 614 ft 113 kts 168°
2026-05-04 19:48 48.10838 16.58300 620 ft 64 kts 165°
2026-05-04 19:48 48.10420 16.58465 616 ft 60 kts 176°
2026-05-04 19:49 48.10170 16.58411 614 ft 22 kts 195°
2026-05-04 19:49 48.10120 16.58363 618 ft 5 kts 231°
2026-05-04 19:49 48.10106 16.58317 629 ft 13 kts 242°
2026-05-04 19:49 48.10127 16.58188 631 ft 13 kts 333°
2026-05-04 19:50 48.10215 16.58147 627 ft 15 kts 344°
2026-05-04 19:50 48.10317 16.58103 623 ft 17 kts 344°
2026-05-04 19:50 48.10437 16.58052 621 ft 18 kts 344°
2026-05-04 19:50 48.10568 16.57996 630 ft 20 kts 344°
2026-05-04 19:51 48.10705 16.57939 630 ft 21 kts 344°
2026-05-04 19:51 48.10858 16.57875 629 ft 24 kts 344°
2026-05-04 19:51 48.11023 16.57804 617 ft 27 kts 343°
2026-05-04 19:51 48.11224 16.57718 625 ft 32 kts 345°
2026-05-04 19:52 48.11448 16.57625 619 ft 31 kts 344°
2026-05-04 19:52 48.11512 16.57598 618 ft 9 kts 344°
2026-05-04 19:52 48.11554 16.57546 620 ft 15 kts 292°
2026-05-04 19:52 48.11633 16.57281 612 ft 23 kts 297°
2026-05-04 19:53 48.11641 16.57258 612 ft 0 kts 297°
2026-05-04 19:53 48.11672 16.57234 609 ft 15 kts 354°
2026-05-04 19:53 48.11830 16.57261 616 ft 13 kts 330°
2026-05-04 19:53 48.11850 16.57193 613 ft 8 kts 278°
2026-05-04 19:54 48.11868 16.57092 613 ft 5 kts 265°
2026-05-04 19:54 48.11848 16.57069 609 ft 6 kts 207°
2026-05-04 19:54 48.11812 16.57042 614 ft 0 kts 205°